QPF
0.00 0.00 0.00 0.00 0.00 0.00 0.00 0.00 0.00 0.00 0.00 0.00 0.00 0.00 0.00 0.01 0.01 0.00 0.00 0.00 0.00 0.00 0.00 0.00 0.00 0.00 0.00 0.00 0.01 0.01 0.02 0.02 0.02 0.01 0.01 0.01 0.00 0.00 0.00 0.00 0.00 0.00 0.00 0.00 0.00 0.00 0.00 0.00 0.00
0.00 0.00 0.00 0.00 0.00 0.00 0.00 0.00 0.00 0.00 0.00 0.00 0.00 0.00 0.00 0.00 0.00 0.00 0.00 0.00 0.00 0.00 0.00 0.00 0.00 0.00 0.00 0.00 0.00 0.01 0.01 0.01 0.01 0.01 0.01 0.00 0.00 0.00 0.00 0.00 0.00 0.00 0.00 0.00 0.00 0.00 0.00 0.00 0.00
0.00 0.00 0.00 0.00 0.00 0.00 0.00 0.00 0.00 0.00 0.00 0.00 0.00 0.00 0.00 0.00 0.00 0.00 0.00 0.00 0.00 0.00 0.00 0.00 0.00 0.00 0.00 0.00 0.01 0.01 0.01 0.01 0.01 0.01 0.01 0.01 0.00 0.00 0.00 0.00 0.00 0.01 0.01 0.01 0.01 0.01 0.00 0.00 0.00
0.00 0.00 0.00 0.00 0.00 0.00 0.00 0.00 0.00 0.01 0.01 0.00 0.00 0.00 0.00 0.00 0.00 0.00 0.00 0.00 0.00 0.00 0.00 0.00 0.00 0.00 0.01 0.01 0.01 0.01 0.01 0.02 0.02 0.01 0.01 0.01 0.01 0.00 0.00 0.00 0.01 0.01 0.02 0.02 0.02 0.02 0.01 0.01 0.00
0.00 0.00 0.00 0.00 0.00 0.00 0.00 0.00 0.00 0.01 0.01 0.00 0.00 0.00 0.00 0.00 0.00 0.00 0.00 0.00 0.00 0.00 0.00 0.01 0.01 0.01 0.01 0.01 0.02 0.02 0.03 0.03 0.03 0.02 0.02 0.02 0.01 0.01 0.01 0.01 0.01 0.01 0.02 0.03 0.04 0.04 0.03 0.02 0.01
0.00 0.00 0.00 0.00 0.00 0.00 0.00 0.00 0.00 0.01 0.01 0.00 0.00 0.00 0.00 0.00 0.00 0.00 0.00 0.00 0.00 0.00 0.00 0.01 0.01 0.01 0.01 0.02 0.03 0.03 0.03 0.04 0.04 0.04 0.04 0.04 0.03 0.03 0.03 0.02 0.02 0.02 0.02 0.03 0.04 0.05 0.04 0.03 0.02
0.00 0.00 0.00 0.00 0.00 0.00 0.00 0.00 0.00 0.00 0.01 0.01 0.00 0.00 0.00 0.00 0.00 0.00 0.00 0.00 0.00 0.00 0.00 0.01 0.02 0.02 0.02 0.03 0.04 0.04 0.05 0.05 0.05 0.05 0.05 0.04 0.03 0.04 0.04 0.05 0.04 0.03 0.03 0.03 0.04 0.05 0.06 0.06 0.04
0.00 0.00 0.00 0.00 0.00 0.00 0.00 0.00 0.00 0.00 0.00 0.01 0.01 0.00 0.01 0.00 0.00 0.00 0.00 0.00 0.00 0.00 0.00 0.01 0.03 0.03 0.03 0.04 0.04 0.05 0.05 0.05 0.05 0.05 0.06 0.05 0.05 0.05 0.06 0.06 0.05 0.04 0.04 0.05 0.06 0.07 0.09 0.10 0.07
0.00 0.00 0.00 0.00 0.00 0.00 0.00 0.00 0.00 0.01 0.01 0.01 0.01 0.00 0.00 0.00 0.01 0.01 0.00 0.00 0.00 0.00 0.01 0.01 0.02 0.03 0.03 0.03 0.04 0.06 0.06 0.08 0.09 0.09 0.10 0.10 0.10 0.10 0.10 0.07 0.06 0.05 0.06 0.07 0.09 0.11 0.15 0.14 0.10
0.00 0.00 0.00 0.00 0.00 0.00 0.00 0.00 0.00 0.01 0.01 0.00 0.00 0.00 0.00 0.01 0.01 0.01 0.01 0.00 0.01 0.01 0.01 0.01 0.02 0.03 0.04 0.05 0.08 0.10 0.10 0.14 0.15 0.16 0.14 0.14 0.17 0.16 0.11 0.10 0.09 0.08 0.09 0.11 0.12 0.15 0.15 0.15 0.11
0.00 0.00 0.00 0.00 0.00 0.00 0.00 0.00 0.00 0.01 0.01 0.00 0.00 0.00 0.00 0.01 0.02 0.02 0.02 0.02 0.03 0.04 0.03 0.03 0.06 0.06 0.08 0.13 0.20 0.15 0.13 0.15 0.17 0.19 0.21 0.23 0.24 0.22 0.19 0.19 0.18 0.16 0.14 0.14 0.16 0.16 0.13 0.13 0.13
0.00 0.00 0.00 0.00 0.00 0.00 0.00 0.00 0.00 0.01 0.01 0.00 0.00 0.00 0.01 0.02 0.03 0.04 0.05 0.06 0.05 0.05 0.06 0.07 0.09 0.10 0.13 0.21 0.21 0.17 0.14 0.16 0.16 0.19 0.22 0.22 0.22 0.22 0.20 0.18 0.17 0.17 0.17 0.19 0.19 0.19 0.17 0.15 0.12
0.00 0.00 0.00 0.00 0.00 0.00 0.00 0.00 0.00 0.00 0.01 0.00 0.00 0.01 0.02 0.02 0.04 0.06 0.08 0.08 0.09 0.11 0.11 0.10 0.11 0.13 0.13 0.14 0.14 0.14 0.12 0.12 0.12 0.11 0.11 0.12 0.13 0.15 0.15 0.14 0.14 0.13 0.14 0.15 0.16 0.16 0.17 0.16 0.14
0.00 0.00 0.00 0.00 0.00 0.00 0.00 0.00 0.00 0.01 0.01 0.01 0.01 0.01 0.03 0.03 0.06 0.09 0.10 0.11 0.13 0.16 0.14 0.13 0.13 0.13 0.12 0.12 0.12 0.11 0.08 0.07 0.05 0.04 0.04 0.04 0.05 0.07 0.07 0.08 0.09 0.09 0.09 0.10 0.10 0.10 0.13 0.13 0.14
0.00 0.00 0.00 0.00 0.00 0.00 0.00 0.01 0.01 0.01 0.01 0.02 0.02 0.02 0.03 0.05 0.06 0.08 0.10 0.12 0.16 0.18 0.13 0.11 0.12 0.10 0.07 0.05 0.04 0.03 0.02 0.02 0.01 0.00 0.00 0.00 0.01 0.02 0.03 0.04 0.04 0.04 0.04 0.05 0.06 0.06 0.06 0.07 0.08
0.00 0.00 0.00 0.00 0.00 0.01 0.01 0.02 0.01 0.01 0.02 0.02 0.03 0.03 0.04 0.05 0.06 0.08 0.09 0.10 0.09 0.08 0.09 0.07 0.06 0.03 0.02 0.02 0.01 0.00 0.00 0.00 0.00 0.00 0.00 0.00 0.00 0.00 0.01 0.01 0.01 0.01 0.01 0.01 0.02 0.03 0.03 0.03 0.05
0.00 0.00 0.00 0.00 0.00 0.01 0.01 0.02 0.01 0.02 0.03 0.04 0.04 0.05 0.06 0.06 0.08 0.09 0.08 0.06 0.05 0.06 0.04 0.02 0.01 0.01 0.00 0.00 0.00 0.00 0.00 0.00 0.00 0.00 0.00 0.00 0.00 0.00 0.00 0.00 0.00 0.00 0.00 0.00 0.00 0.01 0.01 0.02 0.03
0.00 0.00 0.00 0.00 0.00 0.01 0.01 0.02 0.04 0.06 0.08 0.10 0.11 0.09 0.07 0.07 0.08 0.09 0.05 0.04 0.03 0.03 0.01 0.00 0.00 0.00 0.00 0.00 0.00 0.00 0.00 0.00 0.00 0.00 0.00 0.00 0.00 0.00 0.00 0.00 0.00 0.00 0.00 0.00 0.00 0.00 0.00 0.01 0.02
0.00 0.00 0.00 0.00 0.00 0.01 0.02 0.03 0.05 0.08 0.11 0.15 0.15 0.13 0.08 0.06 0.04 0.04 0.03 0.02 0.01 0.01 0.00 0.00 0.00 0.00 0.00 0.00 0.00 0.00 0.00 0.00 0.00 0.00 0.00 0.00 0.00 0.00 0.00 0.00 0.00 0.00 0.00 0.00 0.00 0.00 0.00 0.00 0.01
0.00 0.00 0.00 0.00 0.00 0.00 0.01 0.03 0.05 0.08 0.11 0.11 0.11 0.10 0.08 0.06 0.03 0.02 0.01 0.00 0.00 0.00 0.00 0.00 0.00 0.00 0.00 0.00 0.00 0.00 0.00 0.00 0.00 0.00 0.00 0.00 0.00 0.00 0.00 0.00 0.00 0.00 0.00 0.00 0.00 0.00 0.00 0.00 0.01
0.00 0.00 0.00 0.00 0.00 0.00 0.01 0.04 0.05 0.07 0.07 0.06 0.04 0.04 0.04 0.03 0.01 0.01 0.00 0.00 0.00 0.00 0.00 0.00 0.00 0.00 0.00 0.00 0.00 0.00 0.00 0.00 0.00 0.00 0.00 0.00 0.00 0.00 0.00 0.00 0.00 0.00 0.00 0.00 0.00 0.00 0.00 0.00 0.00
0.00 0.00 0.00 0.00 0.00 0.01 0.01 0.03 0.03 0.04 0.06 0.05 0.03 0.02 0.01 0.01 0.00 0.00 0.00 0.00 0.00 0.00 0.00 0.00 0.00 0.00 0.00 0.00 0.00 0.00 0.00 0.00 0.00 0.00 0.00 0.00 0.00 0.00 0.00 0.00 0.00 0.00 0.00 0.00 0.00 0.00 0.00 0.01 0.00
0.00 0.00 0.00 0.00 0.00 0.00 0.00 0.01 0.01 0.01 0.03 0.03 0.02 0.01 0.00 0.00 0.00 0.00 0.00 0.00 0.00 0.00 0.00 0.01 0.01 0.01 0.01 0.00 0.00 0.00 0.00 0.00 0.00 0.00 0.00 0.00 0.00 0.00 0.00 0.00 0.00 0.00 0.00 0.00 0.00 0.00 0.00 0.01 0.00
0.00 0.00 0.00 0.00 0.00 0.00 0.00 0.01 0.01 0.01 0.01 0.01 0.01 0.00 0.00 0.00 0.00 0.00 0.00 0.00 0.00 0.00 0.00 0.01 0.01 0.01 0.00 0.00 0.00 0.00 0.00 0.00 0.00 0.00 0.00 0.00 0.00 0.00 0.00 0.00 0.00 0.00 0.00 0.00 0.00 0.00 0.00 0.01 0.01
0.00 0.00 0.00 0.00 0.00 0.00 0.00 0.00 0.00 0.00 0.00 0.00 0.00 0.00 0.00 0.00 0.00 0.00 0.00 0.00 0.00 0.00 0.00 0.00 0.00 0.01 0.00 0.00 0.00 0.00 0.00 0.00 0.00 0.00 0.00 0.00 0.00 0.00 0.00 0.00 0.00 0.00 0.00 0.00 0.00 0.00 0.00 0.00 0.01
0.00 0.00 0.00 0.00 0.00 0.00 0.00 0.00 0.00 0.00 0.00 0.00 0.00 0.00 0.00 0.00 0.00 0.00 0.00 0.00 0.00 0.00 0.00 0.00 0.00 0.00 0.00 0.00 0.00 0.00 0.00 0.00 0.00 0.00 0.00 0.00 0.00 0.00 0.00 0.00 0.00 0.00 0.00 0.00 0.00 0.00 0.00 0.00 0.00
0.00 0.00 0.00 0.00 0.00 0.00 0.00 0.00 0.00 0.00 0.00 0.00 0.00 0.00 0.00 0.00 0.00 0.00 0.00 0.00 0.00 0.00 0.00 0.00 0.00 0.00 0.00 0.00 0.00 0.00 0.00 0.00 0.00 0.00 0.00 0.00 0.00 0.00 0.00 0.00 0.00 0.00 0.00 0.00 0.00 0.00 0.00 0.00 0.00
0.00 0.00 0.00 0.00 0.00 0.00 0.00 0.00 0.00 0.00 0.00 0.00 0.00 0.00 0.00 0.00 0.00 0.00 0.00 0.00 0.00 0.00 0.00 0.00 0.00 0.00 0.00 0.00 0.00 0.00 0.00 0.00 0.00 0.00 0.00 0.00 0.00 0.00 0.00 0.00 0.00 0.00 0.00 0.00 0.00 0.00 0.00 0.00 0.00
0.00 0.00 0.00 0.00 0.00 0.00 0.00 0.00 0.00 0.00 0.00 0.00 0.00 0.00 0.00 0.00 0.00 0.00 0.00 0.00 0.00 0.00 0.00 0.00 0.00 0.00 0.00 0.00 0.00 0.00 0.00 0.00 0.00 0.00 0.00 0.00 0.00 0.00 0.00 0.00 0.00 0.00 0.00 0.00 0.00 0.00 0.00 0.00 0.00
0.00 0.00 0.00 0.00 0.00 0.00 0.00 0.00 0.00 0.00 0.00 0.00 0.00 0.00 0.00 0.00 0.00 0.00 0.00 0.00 0.00 0.00 0.00 0.00 0.00 0.00 0.00 0.00 0.00 0.00 0.00 0.00 0.00 0.00 0.00 0.00 0.00 0.00 0.00 0.00 0.00 0.00 0.00 0.00 0.00 0.00 0.00 0.01 0.01
MSLP
1012.74 1013.23 1013.72 1014.07 1014.22 1014.11 1013.74 1013.19 1012.55 1011.93 1011.46 1011.20 1011.16 1011.32 1011.60 1011.92 1012.21 1012.42 1012.54 1012.62 1012.70 1012.84 1013.08 1013.43 1013.86 1014.30 1014.69 1014.98 1015.13 1015.17 1015.13 1015.07 1015.08 1015.18 1015.41 1015.74 1016.12 1016.49 1016.80 1017.01 1017.10 1017.11 1017.07 1017.04 1017.04 1017.11 1017.22 1017.34 1017.45
1012.74 1013.28 1013.76 1014.08 1014.16 1013.95 1013.50 1012.87 1012.19 1011.57 1011.13 1010.93 1010.98 1011.22 1011.58 1011.96 1012.27 1012.48 1012.59 1012.63 1012.68 1012.80 1013.04 1013.40 1013.87 1014.36 1014.82 1015.18 1015.41 1015.50 1015.51 1015.48 1015.50 1015.59 1015.79 1016.07 1016.38 1016.69 1016.92 1017.06 1017.11 1017.10 1017.06 1017.04 1017.08 1017.18 1017.32 1017.48 1017.62
1012.87 1013.41 1013.84 1014.08 1014.06 1013.75 1013.22 1012.55 1011.86 1011.28 1010.93 1010.83 1010.98 1011.32 1011.75 1012.16 1012.48 1012.66 1012.71 1012.70 1012.70 1012.78 1012.99 1013.36 1013.85 1014.39 1014.90 1015.33 1015.62 1015.78 1015.84 1015.86 1015.89 1015.98 1016.15 1016.38 1016.63 1016.86 1017.03 1017.11 1017.12 1017.08 1017.04 1017.05 1017.11 1017.25 1017.43 1017.61 1017.75
1013.10 1013.58 1013.93 1014.05 1013.91 1013.50 1012.91 1012.22 1011.57 1011.08 1010.84 1010.88 1011.15 1011.58 1012.07 1012.51 1012.80 1012.94 1012.93 1012.85 1012.79 1012.82 1013.01 1013.36 1013.86 1014.42 1014.97 1015.44 1015.78 1015.99 1016.09 1016.14 1016.19 1016.28 1016.43 1016.63 1016.83 1017.01 1017.12 1017.16 1017.14 1017.09 1017.05 1017.07 1017.16 1017.32 1017.52 1017.71 1017.85
1013.38 1013.78 1014.00 1013.98 1013.71 1013.21 1012.57 1011.90 1011.32 1010.96 1010.86 1011.03 1011.43 1011.95 1012.48 1012.92 1013.20 1013.28 1013.21 1013.07 1012.95 1012.95 1013.10 1013.44 1013.92 1014.48 1015.04 1015.51 1015.87 1016.09 1016.22 1016.29 1016.35 1016.45 1016.59 1016.77 1016.94 1017.08 1017.16 1017.18 1017.14 1017.09 1017.07 1017.10 1017.21 1017.37 1017.57 1017.76 1017.89
1013.66 1013.94 1014.01 1013.85 1013.46 1012.89 1012.24 1011.61 1011.13 1010.89 1010.94 1011.25 1011.75 1012.34 1012.90 1013.34 1013.58 1013.62 1013.51 1013.33 1013.18 1013.15 1013.29 1013.60 1014.06 1014.59 1015.10 1015.54 1015.87 1016.08 1016.20 1016.27 1016.35 1016.45 1016.59 1016.77 1016.93 1017.06 1017.14 1017.14 1017.11 1017.06 1017.05 1017.09 1017.20 1017.37 1017.56 1017.73 1017.84
1013.88 1014.03 1013.96 1013.67 1013.19 1012.57 1011.92 1011.36 1010.99 1010.88 1011.05 1011.47 1012.05 1012.68 1013.26 1013.68 1013.89 1013.90 1013.78 1013.59 1013.44 1013.41 1013.54 1013.83 1014.25 1014.72 1015.17 1015.54 1015.81 1015.97 1016.05 1016.11 1016.18 1016.29 1016.44 1016.62 1016.80 1016.93 1017.01 1017.02 1017.00 1016.96 1016.96 1017.00 1017.11 1017.27 1017.45 1017.60 1017.70
1014.01 1014.04 1013.85 1013.46 1012.91 1012.28 1011.67 1011.18 1010.91 1010.91 1011.18 1011.67 1012.29 1012.93 1013.49 1013.88 1014.08 1014.09 1013.97 1013.81 1013.69 1013.69 1013.82 1014.10 1014.47 1014.86 1015.22 1015.50 1015.68 1015.76 1015.80 1015.83 1015.89 1016.00 1016.17 1016.37 1016.56 1016.70 1016.79 1016.81 1016.79 1016.76 1016.75 1016.80 1016.91 1017.06 1017.22 1017.36 1017.46
1014.04 1013.97 1013.69 1013.24 1012.66 1012.05 1011.49 1011.09 1010.91 1010.99 1011.32 1011.83 1012.45 1013.07 1013.59 1013.96 1014.14 1014.15 1014.07 1013.96 1013.90 1013.94 1014.10 1014.36 1014.68 1015.00 1015.26 1015.43 1015.51 1015.52 1015.50 1015.50 1015.55 1015.68 1015.86 1016.06 1016.26 1016.41 1016.50 1016.51 1016.49 1016.45 1016.45 1016.49 1016.59 1016.73 1016.89 1017.03 1017.13
1013.97 1013.83 1013.51 1013.03 1012.47 1011.91 1011.42 1011.10 1011.00 1011.13 1011.48 1011.99 1012.56 1013.12 1013.59 1013.92 1014.09 1014.13 1014.10 1014.05 1014.06 1014.15 1014.34 1014.59 1014.87 1015.11 1015.28 1015.36 1015.36 1015.30 1015.24 1015.21 1015.26 1015.39 1015.57 1015.79 1015.98 1016.12 1016.19 1016.18 1016.14 1016.09 1016.07 1016.10 1016.19 1016.32 1016.48 1016.62 1016.73
1013.84 1013.67 1013.33 1012.87 1012.37 1011.88 1011.49 1011.25 1011.20 1011.36 1011.70 1012.16 1012.67 1013.16 1013.56 1013.84 1014.00 1014.07 1014.09 1014.11 1014.19 1014.34 1014.55 1014.80 1015.03 1015.21 1015.31 1015.32 1015.25 1015.15 1015.06 1015.03 1015.08 1015.22 1015.41 1015.61 1015.78 1015.90 1015.93 1015.89 1015.81 1015.72 1015.67 1015.68 1015.76 1015.89 1016.05 1016.20 1016.32
1013.68 1013.50 1013.18 1012.79 1012.36 1011.97 1011.68 1011.52 1011.53 1011.70 1012.01 1012.42 1012.84 1013.24 1013.57 1013.81 1013.96 1014.04 1014.10 1014.19 1014.32 1014.51 1014.74 1014.98 1015.19 1015.33 1015.38 1015.34 1015.24 1015.13 1015.04 1015.02 1015.08 1015.22 1015.40 1015.59 1015.73 1015.79 1015.78 1015.68 1015.55 1015.42 1015.33 1015.32 1015.37 1015.49 1015.65 1015.80 1015.93
1013.53 1013.35 1013.09 1012.77 1012.45 1012.18 1011.99 1011.92 1011.97 1012.16 1012.44 1012.78 1013.13 1013.44 1013.70 1013.89 1014.02 1014.11 1014.20 1014.32 1014.48 1014.70 1014.93 1015.17 1015.35 1015.47 1015.49 1015.45 1015.35 1015.25 1015.19 1015.19 1015.27 1015.41 1015.58 1015.73 1015.83 1015.84 1015.76 1015.60 1015.41 1015.23 1015.10 1015.05 1015.08 1015.18 1015.32 1015.46 1015.58
1013.40 1013.25 1013.05 1012.83 1012.63 1012.47 1012.40 1012.41 1012.53 1012.72 1012.98 1013.27 1013.55 1013.80 1013.99 1014.13 1014.23 1014.31 1014.41 1014.53 1014.71 1014.92 1015.15 1015.37 1015.54 1015.65 1015.68 1015.65 1015.59 1015.52 1015.49 1015.52 1015.62 1015.76 1015.91 1016.03 1016.07 1016.02 1015.88 1015.66 1015.41 1015.18 1015.01 1014.92 1014.92 1014.99 1015.10 1015.21 1015.29
1013.32 1013.20 1013.07 1012.94 1012.86 1012.83 1012.86 1012.97 1013.14 1013.37 1013.62 1013.87 1014.10 1014.30 1014.44 1014.54 1014.60 1014.66 1014.73 1014.84 1014.99 1015.17 1015.38 1015.58 1015.75 1015.86 1015.92 1015.93 1015.91 1015.89 1015.91 1015.97 1016.07 1016.20 1016.32 1016.39 1016.38 1016.28 1016.08 1015.82 1015.53 1015.26 1015.05 1014.92 1014.88 1014.91 1014.98 1015.04 1015.07
1013.26 1013.18 1013.11 1013.09 1013.12 1013.20 1013.35 1013.54 1013.78 1014.03 1014.28 1014.52 1014.73 1014.88 1014.99 1015.05 1015.07 1015.09 1015.13 1015.19 1015.30 1015.44 1015.62 1015.80 1015.96 1016.09 1016.18 1016.23 1016.27 1016.30 1016.35 1016.43 1016.54 1016.64 1016.72 1016.75 1016.70 1016.55 1016.32 1016.03 1015.71 1015.42 1015.19 1015.03 1014.95 1014.92 1014.93 1014.94 1014.91
1013.22 1013.17 1013.18 1013.24 1013.38 1013.57 1013.81 1014.08 1014.37 1014.65 1014.92 1015.15 1015.33 1015.47 1015.54 1015.57 1015.56 1015.54 1015.53 1015.54 1015.59 1015.68 1015.82 1015.98 1016.14 1016.29 1016.42 1016.53 1016.61 1016.69 1016.76 1016.85 1016.93 1017.01 1017.05 1017.03 1016.94 1016.77 1016.52 1016.22 1015.91 1015.62 1015.37 1015.18 1015.06 1014.99 1014.94 1014.88 1014.78
1013.16 1013.16 1013.24 1013.39 1013.62 1013.90 1014.21 1014.54 1014.86 1015.16 1015.43 1015.66 1015.83 1015.94 1016.00 1016.00 1015.97 1015.91 1015.84 1015.80 1015.80 1015.85 1015.94 1016.08 1016.25 1016.43 1016.60 1016.75 1016.88 1016.99 1017.08 1017.15 1017.21 1017.24 1017.24 1017.18 1017.07 1016.89 1016.65 1016.37 1016.08 1015.80 1015.55 1015.36 1015.20 1015.09 1014.98 1014.85 1014.69
1013.08 1013.14 1013.29 1013.53 1013.83 1014.18 1014.54 1014.89 1015.22 1015.51 1015.76 1015.96 1016.11 1016.21 1016.26 1016.25 1016.19 1016.10 1016.01 1015.93 1015.88 1015.89 1015.96 1016.09 1016.27 1016.48 1016.69 1016.88 1017.05 1017.18 1017.27 1017.33 1017.35 1017.34 1017.30 1017.21 1017.08 1016.91 1016.70 1016.46 1016.20 1015.95 1015.72 1015.51 1015.34 1015.18 1015.02 1014.84 1014.62
1012.97 1013.10 1013.34 1013.66 1014.02 1014.41 1014.78 1015.13 1015.42 1015.66 1015.86 1016.02 1016.13 1016.21 1016.24 1016.22 1016.16 1016.07 1015.96 1015.87 1015.80 1015.79 1015.86 1015.99 1016.18 1016.42 1016.66 1016.90 1017.10 1017.25 1017.34 1017.38 1017.37 1017.33 1017.25 1017.15 1017.02 1016.86 1016.69 1016.49 1016.27 1016.06 1015.84 1015.64 1015.44 1015.25 1015.05 1014.83 1014.58
1012.85 1013.08 1013.40 1013.79 1014.21 1014.61 1014.96 1015.24 1015.45 1015.60 1015.71 1015.79 1015.84 1015.88 1015.90 1015.89 1015.85 1015.78 1015.69 1015.61 1015.56 1015.56 1015.63 1015.77 1015.99 1016.26 1016.54 1016.81 1017.04 1017.21 1017.31 1017.34 1017.31 1017.24 1017.15 1017.03 1016.91 1016.78 1016.64 1016.48 1016.31 1016.13 1015.93 1015.73 1015.51 1015.29 1015.07 1014.82 1014.55
1012.74 1013.08 1013.50 1013.95 1014.40 1014.78 1015.07 1015.25 1015.34 1015.36 1015.33 1015.30 1015.28 1015.28 1015.28 1015.29 1015.29 1015.27 1015.23 1015.20 1015.18 1015.21 1015.31 1015.48 1015.73 1016.02 1016.34 1016.65 1016.91 1017.10 1017.21 1017.25 1017.21 1017.13 1017.03 1016.92 1016.81 1016.70 1016.59 1016.47 1016.33 1016.17 1015.99 1015.78 1015.56 1015.32 1015.07 1014.81 1014.55
1012.68 1013.13 1013.63 1014.15 1014.60 1014.93 1015.13 1015.18 1015.11 1014.96 1014.79 1014.63 1014.51 1014.46 1014.46 1014.50 1014.55 1014.60 1014.64 1014.68 1014.73 1014.81 1014.95 1015.15 1015.43 1015.75 1016.10 1016.44 1016.73 1016.95 1017.08 1017.13 1017.10 1017.03 1016.93 1016.82 1016.72 1016.63 1016.54 1016.45 1016.33 1016.19 1016.01 1015.80 1015.56 1015.31 1015.05 1014.79 1014.54
1012.68 1013.22 1013.80 1014.35 1014.79 1015.06 1015.15 1015.05 1014.81 1014.48 1014.14 1013.84 1013.63 1013.53 1013.53 1013.61 1013.73 1013.87 1014.01 1014.13 1014.26 1014.40 1014.59 1014.83 1015.12 1015.47 1015.84 1016.20 1016.51 1016.76 1016.92 1016.99 1016.98 1016.92 1016.83 1016.73 1016.64 1016.55 1016.48 1016.40 1016.29 1016.16 1015.98 1015.77 1015.52 1015.27 1015.00 1014.75 1014.51
1012.74 1013.35 1013.98 1014.54 1014.95 1015.14 1015.11 1014.86 1014.45 1013.95 1013.46 1013.03 1012.74 1012.60 1012.61 1012.73 1012.93 1013.17 1013.41 1013.63 1013.84 1014.05 1014.27 1014.54 1014.85 1015.20 1015.58 1015.95 1016.28 1016.54 1016.72 1016.81 1016.82 1016.78 1016.70 1016.61 1016.52 1016.44 1016.36 1016.28 1016.18 1016.05 1015.88 1015.67 1015.43 1015.17 1014.91 1014.67 1014.45
1012.82 1013.47 1014.12 1014.67 1015.03 1015.14 1015.00 1014.62 1014.07 1013.43 1012.81 1012.29 1011.93 1011.77 1011.79 1011.97 1012.25 1012.58 1012.91 1013.22 1013.51 1013.77 1014.02 1014.30 1014.61 1014.95 1015.32 1015.68 1016.00 1016.27 1016.46 1016.57 1016.60 1016.56 1016.49 1016.40 1016.31 1016.23 1016.16 1016.08 1015.98 1015.86 1015.69 1015.49 1015.26 1015.02 1014.77 1014.54 1014.33
1012.89 1013.54 1014.17 1014.68 1014.98 1015.02 1014.79 1014.31 1013.66 1012.93 1012.23 1011.66 1011.27 1011.10 1011.15 1011.38 1011.73 1012.14 1012.55 1012.93 1013.27 1013.57 1013.84 1014.12 1014.41 1014.72 1015.05 1015.38 1015.69 1015.94 1016.13 1016.23 1016.26 1016.23 1016.16 1016.07 1015.98 1015.90 1015.83 1015.75 1015.67 1015.56 1015.42 1015.24 1015.03 1014.81 1014.58 1014.37 1014.17
1012.91 1013.52 1014.09 1014.54 1014.78 1014.75 1014.46 1013.93 1013.23 1012.47 1011.75 1011.17 1010.78 1010.64 1010.72 1010.99 1011.39 1011.86 1012.33 1012.76 1013.13 1013.44 1013.71 1013.96 1014.22 1014.49 1014.77 1015.06 1015.32 1015.54 1015.70 1015.79 1015.81 1015.78 1015.70 1015.61 1015.52 1015.44 1015.37 1015.32 1015.25 1015.17 1015.06 1014.92 1014.75 1014.55 1014.35 1014.14 1013.95
1012.86 1013.38 1013.87 1014.23 1014.40 1014.33 1014.00 1013.46 1012.78 1012.04 1011.35 1010.81 1010.47 1010.36 1010.48 1010.78 1011.21 1011.71 1012.20 1012.65 1013.03 1013.34 1013.59 1013.81 1014.03 1014.24 1014.47 1014.70 1014.91 1015.08 1015.20 1015.26 1015.26 1015.21 1015.13 1015.03 1014.95 1014.88 1014.83 1014.79 1014.76 1014.72 1014.65 1014.56 1014.42 1014.26 1014.08 1013.88 1013.69
1012.72 1013.14 1013.51 1013.78 1013.87 1013.76 1013.43 1012.92 1012.29 1011.62 1011.01 1010.54 1010.27 1010.21 1010.36 1010.68 1011.13 1011.63 1012.12 1012.56 1012.92 1013.22 1013.45 1013.64 1013.81 1013.97 1014.14 1014.31 1014.46 1014.58 1014.66 1014.68 1014.66 1014.59 1014.50 1014.40 1014.32 1014.27 1014.25 1014.24 1014.25 1014.25 1014.23 1014.17 1014.08 1013.94 1013.77 1013.58 1013.38
Thickness
5820 5822 5824 5819 5810 5814 5814 5820 5827 5829 5832 5838 5840 5836 5829 5820 5814 5803 5820 5829 5824 5819 5810 5801 5797 5794 5792 5790 5788 5786 5784 5782 5780 5777 5774 5772 5770 5768 5766 5764 5762 5760 5759 5757 5756 5755 5754 5753 5753
5824 5824 5819 5815 5811 5810 5810 5821 5823 5826 5833 5839 5837 5833 5826 5817 5819 5816 5819 5822 5820 5815 5807 5801 5793 5790 5788 5786 5784 5783 5780 5778 5776 5773 5771 5768 5766 5764 5763 5761 5759 5758 5757 5755 5754 5752 5751 5750 5750
5824 5822 5815 5814 5813 5807 5807 5820 5824 5831 5838 5836 5830 5830 5822 5812 5815 5817 5821 5820 5817 5811 5804 5796 5789 5786 5783 5781 5780 5778 5776 5774 5772 5769 5767 5765 5763 5761 5759 5758 5757 5756 5754 5753 5752 5750 5749 5748 5747
5821 5815 5813 5810 5807 5811 5813 5821 5827 5829 5832 5834 5830 5818 5816 5810 5816 5819 5818 5818 5814 5806 5801 5792 5785 5782 5779 5776 5775 5773 5771 5769 5767 5765 5763 5761 5760 5758 5757 5755 5754 5753 5752 5751 5750 5748 5747 5745 5744
5819 5812 5806 5806 5806 5813 5821 5826 5830 5827 5826 5827 5827 5812 5804 5805 5814 5815 5814 5814 5809 5805 5799 5789 5782 5779 5775 5773 5771 5769 5767 5765 5763 5761 5759 5758 5756 5755 5754 5753 5752 5751 5750 5749 5747 5746 5744 5742 5741
5810 5808 5798 5798 5799 5810 5821 5828 5829 5823 5820 5821 5820 5809 5799 5802 5804 5806 5809 5809 5807 5802 5796 5786 5778 5775 5772 5770 5768 5766 5764 5762 5760 5758 5756 5755 5753 5752 5751 5750 5749 5748 5747 5746 5745 5743 5741 5740 5738
5800 5797 5795 5794 5794 5800 5812 5826 5824 5820 5815 5814 5819 5806 5798 5797 5800 5802 5802 5803 5801 5797 5792 5784 5779 5773 5768 5767 5765 5763 5761 5759 5757 5755 5753 5752 5750 5749 5748 5747 5746 5745 5744 5743 5742 5741 5739 5737 5735
5801 5795 5790 5791 5788 5794 5812 5821 5821 5820 5811 5818 5819 5804 5796 5795 5797 5796 5795 5794 5793 5790 5787 5780 5777 5773 5769 5765 5761 5759 5757 5755 5753 5752 5750 5748 5747 5747 5746 5744 5743 5742 5741 5740 5739 5738 5737 5734 5732
5792 5781 5781 5785 5784 5793 5808 5809 5812 5820 5814 5812 5812 5812 5809 5799 5794 5790 5787 5785 5782 5780 5779 5776 5773 5767 5765 5763 5758 5756 5754 5751 5750 5749 5747 5746 5747 5747 5746 5744 5741 5739 5738 5738 5736 5735 5734 5732 5730
5780 5773 5779 5787 5789 5792 5797 5800 5805 5807 5803 5800 5797 5800 5800 5794 5791 5787 5783 5778 5774 5771 5770 5768 5766 5762 5759 5757 5754 5753 5752 5749 5747 5747 5746 5745 5744 5743 5744 5742 5738 5736 5736 5735 5734 5732 5731 5730 5731
5773 5771 5779 5785 5791 5792 5792 5796 5804 5801 5793 5795 5791 5789 5790 5788 5786 5784 5780 5777 5773 5767 5763 5761 5759 5756 5754 5751 5750 5747 5747 5744 5743 5742 5742 5740 5739 5739 5739 5738 5736 5735 5734 5734 5733 5731 5731 5731 5730
5767 5772 5776 5780 5788 5787 5789 5794 5794 5792 5789 5795 5795 5790 5786 5782 5780 5778 5774 5771 5767 5761 5757 5756 5753 5750 5747 5746 5744 5742 5742 5741 5740 5737 5736 5736 5736 5736 5736 5735 5734 5733 5732 5731 5731 5729 5730 5728 5727
5761 5768 5775 5780 5784 5787 5787 5786 5784 5780 5785 5788 5786 5782 5778 5776 5773 5771 5768 5763 5759 5754 5751 5748 5746 5743 5740 5739 5739 5738 5737 5737 5735 5733 5733 5732 5733 5733 5733 5731 5729 5730 5729 5728 5727 5726 5726 5725 5724
5768 5770 5773 5777 5779 5781 5778 5777 5777 5769 5777 5775 5772 5770 5769 5766 5764 5761 5758 5755 5752 5747 5744 5742 5740 5737 5735 5734 5733 5732 5732 5730 5730 5727 5726 5725 5727 5726 5727 5726 5725 5725 5724 5723 5722 5722 5721 5721 5721
5772 5766 5769 5773 5775 5776 5776 5765 5765 5765 5767 5762 5761 5759 5758 5757 5756 5753 5752 5749 5746 5742 5740 5737 5736 5733 5731 5730 5729 5727 5726 5724 5722 5720 5718 5717 5718 5718 5719 5720 5720 5720 5718 5717 5717 5717 5717 5717 5718
5770 5765 5763 5767 5771 5772 5766 5756 5756 5760 5758 5752 5752 5750 5749 5749 5750 5749 5747 5744 5742 5739 5736 5735 5735 5730 5727 5724 5722 5722 5720 5717 5715 5713 5711 5709 5708 5709 5710 5713 5714 5712 5713 5713 5713 5713 5713 5712 5713
5768 5764 5763 5761 5767 5768 5763 5755 5752 5755 5751 5745 5744 5744 5743 5741 5742 5742 5742 5741 5739 5736 5733 5730 5728 5725 5723 5719 5717 5715 5711 5709 5708 5707 5704 5702 5702 5702 5703 5705 5705 5705 5707 5708 5708 5709 5707 5707 5707
5761 5764 5761 5757 5762 5761 5756 5751 5748 5747 5743 5738 5736 5736 5735 5735 5737 5738 5737 5737 5736 5733 5730 5727 5723 5720 5717 5715 5712 5710 5707 5705 5703 5700 5696 5695 5695 5695 5695 5699 5697 5698 5701 5701 5700 5698 5698 5699 5701
5767 5762 5757 5756 5759 5756 5749 5744 5741 5739 5735 5730 5727 5727 5729 5732 5736 5737 5736 5735 5734 5730 5727 5724 5720 5716 5712 5710 5708 5705 5703 5701 5698 5695 5690 5689 5688 5688 5688 5690 5690 5690 5693 5692 5693 5693 5694 5695 5697
5767 5761 5758 5753 5754 5751 5745 5739 5738 5733 5729 5728 5725 5723 5727 5730 5733 5734 5734 5734 5732 5729 5725 5721 5716 5714 5709 5706 5703 5699 5697 5696 5693 5689 5685 5683 5682 5681 5684 5681 5683 5685 5683 5685 5685 5685 5687 5691 5693
5769 5765 5761 5752 5748 5749 5742 5730 5729 5729 5728 5727 5728 5730 5733 5734 5734 5734 5734 5734 5732 5729 5725 5722 5717 5712 5708 5704 5701 5697 5693 5692 5692 5687 5684 5680 5677 5677 5676 5675 5676 5676 5678 5681 5678 5679 5680 5683 5686
5766 5770 5764 5755 5748 5744 5741 5726 5728 5731 5727 5727 5729 5732 5736 5738 5738 5737 5736 5735 5733 5731 5728 5723 5717 5712 5707 5703 5700 5697 5691 5688 5686 5683 5682 5678 5675 5673 5672 5671 5670 5670 5672 5672 5673 5677 5675 5674 5677
5766 5771 5765 5758 5753 5746 5743 5736 5733 5736 5730 5731 5736 5739 5742 5743 5742 5740 5740 5739 5737 5735 5731 5726 5719 5713 5708 5703 5699 5694 5691 5689 5687 5682 5679 5675 5676 5672 5670 5668 5666 5665 5667 5666 5664 5665 5666 5669 5670
5770 5765 5761 5760 5761 5739 5737 5736 5731 5741 5741 5742 5745 5746 5746 5746 5745 5744 5743 5741 5738 5736 5732 5727 5720 5714 5709 5703 5699 5693 5689 5685 5681 5678 5676 5675 5675 5672 5669 5665 5662 5661 5661 5659 5658 5657 5659 5659 5659
5768 5759 5750 5746 5745 5738 5740 5739 5740 5752 5755 5754 5752 5751 5751 5750 5748 5745 5743 5740 5738 5735 5732 5728 5721 5714 5709 5703 5698 5693 5688 5684 5679 5676 5676 5671 5672 5670 5666 5662 5658 5656 5654 5652 5651 5650 5650 5650 5649
5767 5762 5742 5728 5734 5742 5741 5737 5751 5761 5761 5760 5759 5758 5755 5753 5752 5749 5746 5743 5739 5736 5731 5726 5720 5713 5708 5703 5697 5692 5687 5684 5682 5677 5672 5670 5667 5666 5660 5656 5653 5651 5648 5647 5645 5644 5644 5642 5640
5764 5764 5767 5751 5745 5739 5742 5746 5757 5762 5758 5758 5758 5756 5754 5754 5753 5751 5748 5744 5740 5735 5730 5725 5717 5711 5706 5702 5695 5689 5685 5680 5677 5672 5668 5668 5663 5660 5657 5652 5649 5646 5643 5640 5636 5637 5633 5633 5631
5772 5766 5757 5748 5729 5729 5736 5741 5746 5752 5755 5758 5757 5756 5757 5756 5754 5751 5748 5744 5739 5734 5727 5722 5716 5709 5704 5699 5693 5689 5683 5678 5673 5669 5665 5661 5658 5654 5650 5647 5644 5641 5638 5634 5630 5629 5628 5623 5622
5758 5756 5754 5754 5745 5730 5729 5744 5767 5763 5764 5762 5762 5762 5760 5757 5755 5751 5746 5742 5736 5731 5725 5718 5712 5706 5700 5695 5690 5684 5680 5676 5671 5666 5662 5658 5654 5649 5645 5641 5638 5634 5631 5628 5624 5621 5618 5615 5613
5767 5761 5753 5739 5737 5739 5736 5749 5776 5773 5772 5769 5767 5766 5763 5759 5756 5750 5744 5737 5732 5728 5723 5716 5710 5704 5698 5693 5687 5681 5676 5672 5667 5664 5659 5654 5649 5645 5641 5636 5632 5628 5624 5620 5616 5612 5610 5607 5605